AEA9117 LERS-LEBL

Flight info

Callsign AEA9117
Flight time 0h 25m
Altitude 14000
Route VIBOK
Aircraft A20N/M-SDE2E3FGHIRWXY/LB1

Departure

Time 2026-05-05 22:21
Airport Reus Airport (LERS)

Arrival

Time 2026-05-05 22:46
Airport Josep Tarradellas Barcelona-El Prat Airport (LEBL)
Time Latitude Longitude Altitude Speed Heading
2026-05-05 22:07 41.14697 1.15671 239 ft 0 kts 341°
2026-05-05 22:14 41.14655 1.15691 239 ft 5 kts 340°
2026-05-05 22:14 41.14618 1.15688 239 ft 5 kts 40°
2026-05-05 22:14 41.14612 1.15680 239 ft 0 kts 67°
2026-05-05 22:15 41.14617 1.15696 239 ft 6 kts 67°
2026-05-05 22:16 41.14645 1.15784 239 ft 14 kts 67°
2026-05-05 22:16 41.14686 1.15929 239 ft 20 kts 69°
2026-05-05 22:16 41.14740 1.16121 239 ft 25 kts 70°
2026-05-05 22:16 41.14803 1.16354 240 ft 29 kts 71°
2026-05-05 22:17 41.14881 1.16606 240 ft 20 kts 68°
2026-05-05 22:17 41.14923 1.16744 240 ft 19 kts 68°
2026-05-05 22:17 41.14977 1.16931 240 ft 24 kts 69°
2026-05-05 22:17 41.15044 1.17153 240 ft 27 kts 73°
2026-05-05 22:18 41.15111 1.17406 241 ft 31 kts 66°
2026-05-05 22:18 41.15198 1.17685 241 ft 34 kts 69°
2026-05-05 22:18 41.15239 1.17830 241 ft 13 kts 69°
2026-05-05 22:18 41.15280 1.17971 242 ft 19 kts 68°
2026-05-05 22:19 41.15333 1.18159 242 ft 23 kts 81°
2026-05-05 22:19 41.15289 1.18255 242 ft 0 kts 167°
2026-05-05 22:20 41.15265 1.18266 242 ft 7 kts 158°
2026-05-05 22:20 41.15208 1.18266 243 ft 10 kts 212°
2026-05-05 22:20 41.15140 1.18087 243 ft 64 kts 246°
2026-05-05 22:20 41.14831 1.17055 312 ft 165 kts 247°
2026-05-05 22:21 41.14370 1.15555 1289 ft 178 kts 245°
2026-05-05 22:21 41.13763 1.14136 2477 ft 181 kts 241°
2026-05-05 22:21 41.13033 1.12709 3212 ft 198 kts 239°
2026-05-05 22:21 41.12239 1.11119 3801 ft 215 kts 242°
2026-05-05 22:22 41.11435 1.09323 4347 ft 233 kts 243°
2026-05-05 22:22 41.10646 1.07416 5140 ft 237 kts 244°
2026-05-05 22:22 41.09873 1.05474 5981 ft 239 kts 245°
2026-05-05 22:22 41.09107 1.03514 6789 ft 241 kts 245°
2026-05-05 22:23 41.08335 1.01532 7559 ft 243 kts 245°
2026-05-05 22:23 41.07558 0.99536 8338 ft 245 kts 244°
2026-05-05 22:23 41.06772 0.97521 9102 ft 247 kts 244°
2026-05-05 22:23 41.05980 0.95489 9846 ft 249 kts 244°
2026-05-05 22:24 41.05181 0.93446 10521 ft 251 kts 244°
2026-05-05 22:24 41.04377 0.91385 11160 ft 252 kts 245°
2026-05-05 22:24 41.03939 0.89186 11763 ft 253 kts 270°
2026-05-05 22:24 41.04319 0.86904 12326 ft 259 kts 292°
2026-05-05 22:25 41.05265 0.84863 12966 ft 262 kts 306°
2026-05-05 22:25 41.06582 0.83155 13565 ft 269 kts 319°
2026-05-05 22:25 41.08235 0.81905 14013 ft 289 kts 333°
2026-05-05 22:25 41.10368 0.81189 13955 ft 341 kts 348°
2026-05-05 22:26 41.12790 0.80869 13955 ft 355 kts 354°
2026-05-05 22:26 41.15272 0.80852 13945 ft 358 kts 359°
2026-05-05 22:26 41.17756 0.81132 13953 ft 360 kts
2026-05-05 22:26 41.20231 0.81715 13955 ft 362 kts 11°
2026-05-05 22:27 41.22559 0.83011 13955 ft 368 kts 30°
2026-05-05 22:27 41.24451 0.85320 13956 ft 373 kts 51°
2026-05-05 22:27 41.25649 0.88375 13949 ft 375 kts 70°
2026-05-05 22:27 41.26416 0.91691 13950 ft 376 kts 74°
2026-05-05 22:28 41.27100 0.95047 13947 ft 375 kts 75°
2026-05-05 22:28 41.27781 0.98389 13947 ft 375 kts 74°
2026-05-05 22:28 41.28485 1.01738 13939 ft 375 kts 74°
2026-05-05 22:28 41.29205 1.05074 13942 ft 376 kts 73°
2026-05-05 22:29 41.29937 1.08411 13948 ft 376 kts 73°
2026-05-05 22:29 41.30672 1.11746 13945 ft 375 kts 73°
2026-05-05 22:29 41.31406 1.15080 13941 ft 376 kts 73°
2026-05-05 22:29 41.32141 1.18420 13943 ft 376 kts 73°
2026-05-05 22:30 41.32867 1.21731 13946 ft 387 kts 73°
2026-05-05 22:30 41.33657 1.25335 13947 ft 418 kts 73°
2026-05-05 22:30 41.34474 1.29078 13943 ft 426 kts 73°
2026-05-05 22:30 41.35310 1.32917 13946 ft 440 kts 73°
2026-05-05 22:31 41.36170 1.36872 13951 ft 446 kts 73°
2026-05-05 22:31 41.37031 1.40835 13949 ft 446 kts 73°
2026-05-05 22:31 41.37892 1.44811 13979 ft 447 kts 74°
2026-05-05 22:31 41.38750 1.48778 13943 ft 442 kts 74°
2026-05-05 22:32 41.39589 1.52663 13817 ft 427 kts 74°
2026-05-05 22:32 41.40391 1.56383 13585 ft 405 kts 74°
2026-05-05 22:32 41.41137 1.59856 13218 ft 376 kts 74°
2026-05-05 22:32 41.41845 1.63153 12513 ft 367 kts 73°
2026-05-05 22:33 41.42542 1.66402 11889 ft 362 kts 74°
2026-05-05 22:33 41.43231 1.69621 11240 ft 359 kts 74°
2026-05-05 22:33 41.43910 1.72801 10629 ft 355 kts 73°
2026-05-05 22:33 41.44581 1.75948 10166 ft 347 kts 73°
2026-05-05 22:34 41.44950 1.79031 9984 ft 330 kts 92°
2026-05-05 22:34 41.44460 1.81917 9846 ft 312 kts 116°
2026-05-05 22:34 41.43394 1.84340 9693 ft 296 kts 125°
2026-05-05 22:34 41.42565 1.86801 9134 ft 300 kts 103°
2026-05-05 22:35 41.42571 1.89563 8628 ft 300 kts 76°
2026-05-05 22:35 41.43391 1.92075 8178 ft 295 kts 58°
2026-05-05 22:35 41.44486 1.94378 7677 ft 291 kts 55°
2026-05-05 22:35 41.45591 1.96619 7056 ft 287 kts 55°
2026-05-05 22:36 41.46660 1.98860 6431 ft 285 kts 57°
2026-05-05 22:36 41.47687 2.01109 5797 ft 283 kts 57°
2026-05-05 22:36 41.48570 2.03098 5256 ft 280 kts 58°
2026-05-05 22:36 41.49547 2.05332 4636 ft 277 kts 58°
2026-05-05 22:37 41.50504 2.07536 4192 ft 272 kts 58°
2026-05-05 22:37 41.51468 2.09758 4044 ft 277 kts 58°
2026-05-05 22:37 41.52281 2.12017 4029 ft 277 kts 74°
2026-05-05 22:37 41.52354 2.14549 4025 ft 267 kts 102°
2026-05-05 22:38 41.51620 2.16665 4025 ft 239 kts 130°
2026-05-05 22:38 41.50445 2.18011 4023 ft 211 kts 153°
2026-05-05 22:38 41.49196 2.18989 4006 ft 214 kts 152°
2026-05-05 22:38 41.47971 2.19980 3993 ft 197 kts 152°
2026-05-05 22:39 41.46811 2.20933 3995 ft 195 kts 152°
2026-05-05 22:39 41.45694 2.21855 3769 ft 182 kts 152°
2026-05-05 22:39 41.44665 2.22703 3227 ft 178 kts 152°
2026-05-05 22:39 41.43604 2.23569 2593 ft 179 kts 152°
2026-05-05 22:40 41.42681 2.24320 2172 ft 172 kts 151°
2026-05-05 22:40 41.42158 2.24744 2072 ft 177 kts 151°
2026-05-05 22:40 41.41077 2.25558 1999 ft 183 kts 162°
2026-05-05 22:40 41.39804 2.25621 1996 ft 186 kts 192°
2026-05-05 22:41 41.38523 2.25367 2001 ft 187 kts 192°
2026-05-05 22:41 41.37255 2.25116 2003 ft 186 kts 193°
2026-05-05 22:41 41.35977 2.24769 1998 ft 187 kts 197°
2026-05-05 22:41 41.34775 2.24229 1994 ft 176 kts 212°
2026-05-05 22:42 41.33940 2.23311 1996 ft 139 kts 232°
2026-05-05 22:42 41.33433 2.22378 1950 ft 120 kts 242°
2026-05-05 22:42 41.33040 2.21413 1822 ft 118 kts 246°
2026-05-05 22:42 41.32699 2.20464 1685 ft 116 kts 247°
2026-05-05 22:43 41.32354 2.19482 1516 ft 115 kts 248°
2026-05-05 22:43 41.32023 2.18516 1368 ft 115 kts 248°
2026-05-05 22:43 41.31690 2.17544 1211 ft 115 kts 248°
2026-05-05 22:43 41.31358 2.16570 1058 ft 115 kts 248°
2026-05-05 22:44 41.31018 2.15583 897 ft 118 kts 248°
2026-05-05 22:44 41.30679 2.14588 741 ft 120 kts 248°
2026-05-05 22:44 41.30329 2.13563 590 ft 121 kts 248°
2026-05-05 22:44 41.29979 2.12565 431 ft 122 kts 248°
2026-05-05 22:45 41.29622 2.11537 256 ft 122 kts 249°
2026-05-05 22:45 41.29277 2.10519 82 ft 120 kts 249°
2026-05-05 22:45 41.28934 2.09518 7 ft 112 kts 248°
2026-05-05 22:45 41.28663 2.08696 9 ft 85 kts 247°
2026-05-05 22:46 41.28453 2.08089 7 ft 44 kts 241°
2026-05-05 22:46 41.28434 2.07994 7 ft 5 kts 256°
2026-05-05 22:46 41.28422 2.07895 7 ft 18 kts 265°
2026-05-05 22:46 41.28422 2.07688 4 ft 27 kts 278°
2026-05-05 22:47 41.28428 2.07632 5 ft 0 kts 278°
2026-05-05 22:51 41.28467 2.07542 3 ft 25 kts 321°
2026-05-05 22:52 41.28548 2.07527 4 ft 22 kts 23°